Regional Weather Roundup
Issued by NWS Sioux Falls, SD

Home | Current Version | Previous Version | Text Only | Print | Product List | Glossary On
Versions: 1 2 3 4 5 6 7 8 9 10 11 12 13 14 15 16 17 18 19 20 21 22 23 24 25 26 27 28 29 30 31 32 33 34 35 36 37 38 39 40 41 42 43 44 45 46 47 48 49 50
000
ASUS43 KFSD 271610
RWRFSD

WEATHER ROUNDUP FOR SE SOUTH DAKOTA/SW MINNESOTA/NW IOWA
NATIONAL WEATHER SERVICE SIOUX FALLS SD
1100 AM CDT FRI MAR 27 2015

NOTE: "FAIR" INDICATES FEW OR NO CLOUDS BELOW 12,000 FEET WITH NO
SIGNIFICANT WEATHER AND OR OBSTRUCTIONS TO VISIBILITY.


SDZ038>040-050-052>070-271700-
SOUTHEAST SOUTH DAKOTA

CITY           SKY/WX    TMP DP  RH WIND       PRES   REMARKS
CHAMBERLAIN    CLOUDY    31  22  69 SE12      30.16F WCI  21
HURON          CLOUDY    29  13  51 S8        30.21F WCI  21
MADISON        FAIR      25  12  58 S6        30.21F WCI  18
MITCHELL       CLOUDY   N/A N/A N/A MISG      30.23F
SIOUX FALLS    CLOUDY    28   9  44 S7        30.24F WCI  21
WINNER         CLOUDY    35  27  72 S16       30.11F WCI  25
YANKTON        CLOUDY    28  10  47 S6        30.27F WCI  22
$$

MNZ071-072-080-081-089-090-097-098-271700-
SOUTHWEST MINNESOTA

CITY           SKY/WX    TMP DP  RH WIND       PRES   REMARKS
FAIRMONT       SUNNY     28  10  47 S3        30.26R
JACKSON        MOSUNNY   30   9  40 CALM      30.25S
LUVERNE        PTSUNNY   32   7  34 SW3       30.25F
MARSHALL       MOSUNNY   28   9  43 S5        30.26F WCI  23
MONTEVIDEO     MOSUNNY   30  12  47 S5        30.27F WCI  25
PIPESTONE      PTSUNNY   28   5  37 SW7       30.21F WCI  21
REDWOOD FALLS  SUNNY     27  10  49 S7        30.27S WCI  19
TRACY          MOSUNNY   28  13  52 CALM      30.25F
WINDOM         MOSUNNY   28  10  47 CALM      30.25S
WORTHINGTON    PTSUNNY   27   9  46 CALM      30.25S
$$

IAZ001>003-012>014-020>022-031-032-NEZ013-014-SDZ071-271700-
NORTHWEST IOWA

CITY           SKY/WX    TMP DP  RH WIND       PRES   REMARKS
CHEROKEE       MOSUNNY   30  11  45 S3        30.27S
DENISON        SUNNY     30  12  47 VRB3      30.25F
ESTHERVILLE    SUNNY     27  13  55 CALM      30.26R
LE MARS        MOSUNNY   28  16  59 SW5       30.28F WCI  23
ORANGE CITY    MOSUNNY   30   7  37 CALM      30.25F
SHELDON        MOSUNNY   28  10  47 CALM      30.25S
SIOUX CITY     MOSUNNY   31  15  52 VRB3      30.29F
SPENCER        MOSUNNY   30  12  47 N5        30.26F WCI  25
STORM LAKE     SUNNY     28  12  50 VRB5      30.26S WCI  23
$$

ABBREVIATIONS USED IN REMARKS
   TC - TEMPERATURE IN CELSIUS
  WCI - WIND CHILL INDEX
   HX - HEAT INDEX
  VSB - VISIBILITY




USA.gov is the U.S. government's official web portal to all federal, state and local government web resources and services.